• MPC Preparation (Info)

  • MPEC 2014-V24 : 2014 UC206

    The following Minor Planet Electronic Circular may be linked-to from your own Web pages, but must not otherwise be redistributed electronically.

    A form allowing access to any MPEC is at the bottom of this page.


    Read MPEC 2014-V23 Read MPEC 2014-V25


    M.P.E.C. 2014-V24                                Issued 2014 Nov. 4, 15:13 UT
    
         The Minor Planet Electronic Circulars contain information on unusual
             minor planets and routine data on comets.  They are published
       on behalf of Commission 20 of the International Astronomical Union by the
              Minor Planet Center, Smithsonian Astrophysical Observatory,
                              Cambridge, MA 02138, U.S.A.
    
                 Prepared using the Tamkin Foundation Computer Network
    
                                  MPC@CFA.HARVARD.EDU
                URL https://www.minorplanetcenter.net/    ISSN 1523-6714
    
                                      2014 UC206
    
    Observations:
         K14UK6C* C2014 10 30.50550 09 55 15.26 +00 12 29.1          20.7 VqEV024G96
         K14UK6C  C2014 10 30.51006 09 55 15.19 +00 12 25.8          20.7 VqEV024G96
         K14UK6C  C2014 10 30.51466 09 55 15.16 +00 12 22.8          20.6 VqEV024G96
         K14UK6C  C2014 10 30.51923 09 55 15.10 +00 12 19.6          20.7 VqEV024G96
         K14UK6C  C2014 10 31.49010 09 55 06.24 +00 01 09.5          20.8 VqEV024G96
         K14UK6C  C2014 10 31.49413 09 55 06.21 +00 01 06.7          20.8 VqEV024G96
         K14UK6C  C2014 10 31.49555 09 55 06.19 +00 01 06.1          21.5 VqEV024G96
         K14UK6C  C2014 10 31.49695 09 55 06.18 +00 01 05.2          20.4 VqEV024G96
         K14UK6C HC2014 11 03.49913 09 54 33.57 -00 32 26.8          20.7 RoEV024291
         K14UK6C  C2014 11 03.50196 09 54 33.52 -00 32 28.8          20.9 VqEV024G96
         K14UK6C  C2014 11 03.50600 09 54 33.45 -00 32 31.5          21.0 VqEV024G96
         K14UK6C HC2014 11 03.50627 09 54 33.45 -00 32 31.8          20.7 RoEV024291
         K14UK6C  C2014 11 03.51010 09 54 33.39 -00 32 34.6          21.3 VqEV024G96
         K14UK6C  C2014 11 03.51414 09 54 33.34 -00 32 36.8          21.1 VqEV024G96
         K14UK6C HC2014 11 03.51555 09 54 33.30 -00 32 37.5          20.6 RoEV024291
         K14UK6C  C2014 11 04.48496 09 54 20.81 -00 43 08.5          21.8 VqEV024G96
         K14UK6C  C2014 11 04.48842 09 54 20.78 -00 43 10.7          21.8 VqEV024G96
         K14UK6C  C2014 11 04.49189 09 54 20.78 -00 43 11.9          21.1 VqEV024G96
         K14UK6C  C2014 11 04.49537 09 54 20.73 -00 43 14.2          21.9 VqEV024G96
    
    Observer details:
    291 LPL/Spacewatch II.  Observer R. A. Mastaler.  1.8-m f/2.7 reflector + CCD.
    G96 Mt. Lemmon Survey.  Observers A. R. Gibbs, R. E. Hill.  Measurers
        E. J. Christensen, A. R. Gibbs, A. D. Grauer, R. E. Hill, J. A. Johnson,
        R. A. Kowalski, S. M. Larson, F. C. Shelly.  1.5-m reflector + CCD.
    
    Orbital elements:
    2014 UC206                                               Earth MOID = 0.0895 AU
    Epoch 2014 Dec. 9.0 TT = JDT 2457000.5                  MPC
    M  20.36072              (2000.0)            P               Q
    n   0.23593042     Peri.  134.22332     +0.93778344     +0.33559678
    a   2.5938613      Node   206.54788     -0.34718219     +0.91011000
    e   0.8427445      Incl.   11.49782     +0.00517123     +0.24305265
    P   4.18           H   18.9           G   0.15           U   8
    Residuals in seconds of arc
    141030 G96  0.0   0.1+    141031 G96  0.2+  0.1+    141103 291  0.2-  0.2+
    141030 G96  0.2-  0.0     141103 291  0.1+  0.1+    141104 G96  0.7-  0.5-
    141030 G96  0.1+  0.2+    141103 G96  0.1+  0.0     141104 G96  0.3-  0.4-
    141030 G96  0.0   0.2+    141103 G96  0.0   0.0     141104 G96  0.5+  0.6+
    141031 G96  0.2-  0.3-    141103 291  0.1-  0.2-    141104 G96  0.6+  0.6+
    141031 G96  0.1+  0.3-    141103 G96  0.0   0.4-
    141031 G96  0.1+  0.0     141103 G96  0.1+  0.0
    
    Ephemeris:
    2014 UC206               a,e,i = 2.59, 0.84, 11                  q = 0.4079
    Date    TT    R. A. (2000) Decl.     Delta      r     Elong.  Phase     V
    2014 10 05    10 07 48.1 +05 47 36   0.7373  0.6424    39.9    92.7    20.6
    ...
    2014 10 20    09 56 47.3 +02 22 32   0.8791  0.8916    56.4    68.4    20.8
    ...
    2014 10 28    09 55 35.5 +00 42 04   0.9289  1.0209    64.0    61.1    21.0
    ...
    2014 11 03    09 54 39.3 -00 26 53   0.9553  1.1148    69.8    56.6    21.1
    2014 11 04    09 54 26.9 -00 37 48   0.9589  1.1302    70.8    56.0    21.1
    2014 11 05    09 54 13.4 -00 48 34   0.9623  1.1455    71.8    55.3    21.1
    ...
    2014 11 11    09 52 22.4 -01 49 23   0.9783  1.2357    77.8    51.5    21.2
    ...
    2014 11 19    09 48 10.7 -02 59 40   0.9902  1.3518    86.2    46.9    21.3
    ...
    2014 12 04    09 33 16.9 -04 29 43   0.9956  1.5572   103.6    38.0    21.4
    
    A. U. Tomatic                (C) Copyright 2014 MPC           M.P.E.C. 2014-V24
    

    Read MPEC 2014-V23 Read MPEC 2014-V25


    MPEC number:

    Enter an MPEC number in one of the following forms:

    • 1997-B01 (the full form)
    • J97B01 (the packed version of the full form)
    • B01 (the abbreviated form)